Regional Weather Roundup
Issued by NWS Grand Forks, ND

Home | Current Version | Previous Version | Graphics & Text | Print | Product List | Glossary On
Versions: 1 2 3 4 5 6 7 8 9 10 11 12 13 14 15 16 17 18 19 20 21 22 23 24 25 26 27 28 29 30 31 32 33 34 35 36 37 38 39 40 41 42 43 44 45 46 47 48 49 50
000
ASUS43 KFGF 251731
RWRFGF
PRAIRIE TO PINES  WEATHER ROUNDUP
NATIONAL WEATHER SERVICE EASTERN NORTH DAKOTA/GRAND FORKS ND
1200 PM CDT SAT MAR 25 2017

 **SATELLITE DATA USED TO AUGMENT SKY COVER AT AUTOMATED STATIONS**
 *****  WEATHER ACROSS EASTERN NORTH DAKOTA  *****

CITY           SKY/WX    TMP DP  RH WIND       PRES   REMARKS
GRAND FORKS    CLOUDY    38  33  82 S17G24    30.15S
GRAND FRKS AFB CLOUDY    37  32  81 S18       30.14S
DEVILS LAKE    CLOUDY    35  31  85 S22       30.08S WCI  23
FARGO          CLOUDY    36  32  85 SE12      30.17F
WAHPETON ARPT  CLOUDY    34  30  86 SE12      30.17F
$$

 ***** WEATHER ACROSS CENTRAL AND WESTERN NORTH DAKOTA  *****

CITY           SKY/WX    TMP DP  RH WIND       PRES   REMARKS
BISMARCK       CLOUDY    36  32  85 S18       30.05S
MINOT          CLOUDY    38  32  79 S16G28    29.91F
JAMESTOWN      CLOUDY    34  31  88 S18G26    30.09S WCI  23
MINOT AFB      FAIR      37  32  85 S12       29.92R
GARRISON         N/A     35  31  85 S20       29.95F WCI  24
WILLISTON      FAIR      56  34  43 W13G21    29.88R
DICKINSON      FAIR      45  32  60 S16       29.90F
HETTINGER      PTSUNNY   46  33  60 SE10      29.95F
$$

 *****  OTHER AIRPORT OBSERVATIONS IN OUR AREA  *****

CITY           SKY/WX    TMP DP  RH WIND       PRES   REMARKS
WALHALLA       NOT AVBL
GRAFTON AIRPOR CLOUDY    37  34  87 S21G26    30.15F
VALLEY CITY AR MIX PCPN  32  32 100 SE18G26   30.12F WCI  20
CANDO          NOT AVBL
CAVALIER APRT    N/A     37  32  81 S16G25    30.11S
GWINNER        CLOUDY    36  32  87 MISG      30.14S
SHEYENNE NWR     N/A     35  32  88 S13       29.95S
ROLLA          CLOUDY    30  30 100 S20G29    29.99F WCI  18
 ***** THE ABOVE OBSERVATIONS ARE NON NWS ARE NOT QUALITY
       CONTROLLED AND MAY MIS-REPORT RAIN FOR SNOW...
$$

  *****  WEATHER ACROSS NORTHERN MINNESOTA  *****

CITY           SKY/WX    TMP DP  RH WIND       PRES   REMARKS
FLAG ISLAND    CLOUDY    34  30  86 S14       30.19F WCI  24
WARROAD        CLOUDY    39  30  70 S13       30.19F
ROSEAU         PTSUNNY   39  30  70 SE15      30.17F
HALLOCK        PTSUNNY   37  34  87 S20       30.14F
THF RVR FALLS  NOT AVBL
BAUDETTE       CLOUDY    38  28  67 SE15G23   30.20F
WASKISH        PTSUNNY   39  28  65 SE12G21   30.20F
CROOKSTON      CLOUDY    37  32  81 S20       30.18S
STEPHEN NDAWN    N/A     37  32  81 S20         N/A
GREENBUSH NDAW   N/A     36  30  80 S15         N/A
$$
  *****  WEATHER ACROSS CENTRAL AND WEST MINNESOTA  *****

CITY           SKY/WX    TMP DP  RH WIND       PRES   REMARKS
FOSSTON        PTSUNNY   39  34  81 SE8       30.16F
BEMIDJI        FAIR      38  29  69 SE14      30.17F
PARK RAPIDS    CLOUDY    38  25  59 E13       30.16F
ELBOW LAKE     CLOUDY    34  30  85 SE7       30.17S
WADENA         PTSUNNY   39  28  65 SE13      30.15F
DETROIT LAKES  FAIR      37  32  81 SE14      30.16S
MOORHEAD       CLOUDY    36  30  80 SE10      30.18F
FERGUS FALLS   CLOUDY    36  28  75 SE8       30.20F
MORRIS MN      PTSUNNY   36  30  80 SE14      30.15F
STAPLES        FAIR      39  27  60 E9G17     30.17F
$$
  *****  WEATHER ELSEWHERE ACROSS MINNESOTA  *****

CITY           SKY/WX    TMP DP  RH WIND       PRES   REMARKS
DULUTH         CLOUDY    33  30  88 E20G28    30.24F WCI  21
INTRNTL FALLS  CLOUDY    36  25  64 SE10      30.25S
ELY            CLOUDY    32  25  74 SE10      30.28S WCI  24
CLOQUET        CLOUDY    36  28  75 E12G21    30.23F
WHEATON        CLOUDY    36  30  80 SE12      30.18S
BRAINERD       CLOUDY    37  27  67 E14G20    30.20F
HIBBING        CLOUDY    33  26  75 E14       30.25F WCI  23
ALEXANDRIA     CLOUDY    34  30  85 E12       30.18S
SAINT CLOUD    CLOUDY    36  31  82 E10       30.19S
MINNEAPOLIS    CLOUDY    40  31  70 NE14      30.16F
$$

  *****  WEATHER ACROSS SOUTH DAKOTA  *****

CITY           SKY/WX    TMP DP  RH WIND       PRES   REMARKS
SIOUX FALLS    CLOUDY    41  36  82 NE16      30.08F
BROOKINGS      CLOUDY    35  32  88 E8        30.09F
WATERTOWN      CLOUDY    34  31  88 SE9       30.10F
HURON          CLOUDY    36  32  85 SE3       30.10F
SISSETON         N/A     35  32  88 S14       30.14F
ABERDEEN       CLOUDY    36  28  73 S8        30.13F
MITCHELL       CLOUDY    36  34  92 E7        30.11F
PIERRE         CLOUDY    37  33  85 SE9       30.06F
MOBRIDGE       CLOUDY    37  31  78 S13       30.04F
RAPID CITY     FAIR      56  33  42 SE13      29.91F
$$

  *****  SOME WEATHER IN NEARBY STATES *****

CITY           SKY/WX    TMP DP  RH WIND       PRES   REMARKS
GLASGOW MT     FAIR      54  27  35 W22G32    29.90R
GREAT FALLS MT FAIR      48  21  34 SW20      29.96S
CHEYENNE WY    FAIR      52  27  38 S10       30.02F
SCOTTSBLUFF NE FAIR      56  34  43 S8        29.97F
OMAHA NE       CLOUDY    43  37  79 N18       29.97F
DES MOINES IA  LGT RAIN  41  38  89 NE17      29.95S FOG
DAVENPORT IA   CLOUDY    43  41  93 E21       29.93F FOG
CHICAGO IL     LGT RAIN  42  39  89 NE16      30.04S
EAU CLAIRE WI  CLOUDY    39  32  76 E17       30.18S
LA CROSSE WI   CLOUDY    40  35  83 E15       30.12F
$$

  *****  SOME NATIONAL WEATHER *****

CITY           SKY/WX    TMP DP  RH WIND       PRES   REMARKS
LA GUARDIA NY  PTSUNNY   55  38  52 E9        30.17S
RALEIGH NC     PTSUNNY   71  51  49 SW17G26   30.30F
ATLANTA GA     PTSUNNY   71  53  52 S6G18     30.24F
NEW ORLEANS LA PTSUNNY   80  66  62 S24G33    30.04F
OKLAHOMA CITY  CLOUDY    51  42  71 NW16      30.01R
ALBUQUERQUE NM PTSUNNY   54  24  31 VRB3      30.13F
SALT LAKE CITY HVY RAIN  43  41  93 NW17      30.03R FOG
LOS ANGELES CA PTSUNNY   60  53  77 VRB3      30.12F
BOISE ID       FAIR      47  38  71 CALM      30.09F
SEATTLE WA     PTSUNNY   46  41  82 S13       30.11R
$$

*** WEATHER ACROSS MANITOBA...SASKATCHEWAN AND ONTARIO ***
                ***ONTARIO***

CITY           SKY/WX    TMP DP  RH WIND       PRES   REMARKS
GERALDTON      MOSUNNY   25  -6  26 SE10      30.42F WCI  15
THUNDER BAY    MOSUNNY   30  21  69 E9        30.41S WCI  22
SIOUX LOOKOUT  CLOUDY    36  18  48 SE12G18   30.28F
TORONTO        CLOUDY    37  34  87 E10       30.33R
BIG TROUT LK   SUNNY     25   1  36 S12       30.34F WCI  14
PICKLE LAKE    PTSUNNY   28  -2  26 S12G17    30.33F WCI  18
DRYDEN         CLOUDY    36  23  60 SE12G20   30.24F
KENORA         CLOUDY    36  28  75 S14G20    30.20S
$$
                *** MANITOBA***

CITY           SKY/WX    TMP DP  RH WIND       PRES   REMARKS
BRANDON        CLOUDY    34  30  86 SE16G23   29.95R WCI  23
DAUPHIN        MOSUNNY   34  30  86 E12       29.84F
ISLAND LAKE    CLOUDY    25   9  50 SE12G18   30.13F WCI  14
PILOT MOUND      N/A     32  30  93 S28         N/A  WCI  18
THE PAS        LGT SNOW  28  27  93 SE18G28   29.73F WCI  16
THOMPSON       LGT SNOW  19   7  58 E7        30.02F WCI  10
WINNIPEG       CLOUDY    39  30  70 S26G39    30.11S
LYNN LAKE      PTSUNNY   19   5  53 E9        29.94F WCI   9
CHURCHILL      PTSUNNY   14   1  57 S10       30.29F WCI   1
GILLAM         CLOUDY    21   0  39 E7        30.19F WCI  13
$$
                ***SASKATCHEWAN***

CITY           SKY/WX    TMP DP  RH WIND       PRES   REMARKS
ESTEVAN        MOSUNNY   46  37  71 SW13      29.83R
KINDERSLEY     MOSUNNY   45  36  70 W22       29.75R
LLOYDMINSTER   PTSUNNY   34  32  93 NW10      29.72R
PRINCE ALBERT  CLOUDY    32  30  93 N12       29.61S WCI  23
REGINA         PTSUNNY   50  36  57 SW22G29   29.74S
YORKTON        SUNNY     39  32  75 S15G24    29.74S
N. BATTLEFORD  CLOUDY    34 N/A N/A W14G20    29.72R WCI  24
LA RONGE       SNOW      21  19  93 NE13      29.74F VSB 1/2 WCI   9
SASKATOON      CLOUDY    37  34  87 W15G23    29.65R
SWIFT CURRENT  SUNNY     45  34  65 W25G35    29.77R
$$
NOTE: THESE ARE AUTOMATED STATIONS WITH LIMITED QUALITY CONTROL
      "FAIR" INDICATES FEW OR NO CLOUDS BELOW 12,000 FEET WITH NO
      SIGNIFICANT WEATHER AND/OR OBSTRUCTIONS TO VISIBILITY.
      SKY/WX - SKY CONDITION AND SIGNIFICANT WEATHER.
      TMP - AIR TEMPERATURE.    DP   - DEWPOINT TEMPERATURE.
      RH  - RELATIVE HUMIDITY.  PRES - PRESSURE.
      HX  - HEAT INDEX.         WCI  - WIND CHILL INDEX.
$




USA.gov is the U.S. government's official web portal to all federal, state and local government web resources and services.